Regional Weather Roundup
Issued by NWS

Home | Current Version | Previous Version | Graphics & Text | Print | Product List | Glossary On
Versions: 1 2 3 4 5 6 7 8 9 10 11 12 13 14 15 16 17 18 19 20 21 22 23 24 25 26 27 28 29 30 31 32 33 34 35 36 37 38 39 40 41 42 43 44 45 46 47 48 49 50
000
ASUS43 KMPX 300001
RWRMN
WEATHER ROUNDUP FOR MINNESOTA
NATIONAL WEATHER SERVICE TWIN CITIES/CHANHASSEN MN
700 PM CDT WED JUL 29 2015


NOTE: "FAIR" INDICATES FEW OR NO CLOUDS BELOW 12,000 FEET WITH NO
SIGNIFICANT WEATHER AND/OR OBSTRUCTIONS TO VISIBILITY. N/A MEANS
CURRENT SKY AND/OR WEATHER CONDITIONS ARE NOT AVAILABLE.

MNZ060>063-068>070-300100-
   Twin Cities Metro

CITY           SKY/WX    TMP DP  RH WIND       PRES   REMARKS
TWIN CITIES    MOSUNNY   81  53  37 W16G30    29.94S
6HR MIN TEMP:  80; 6HR MAX TEMP:  82;

ST PAUL        SUNNY     80  55  42 W18G29    29.93S
CRYSTAL        MOSUNNY   82  55  39 W18       29.92S
BLAINE         MOSUNNY   81  55  41 W14G28    29.93R
LAKEVILLE      SUNNY     77  54  44 W10G17    29.96S
EDEN PRAIRIE   SUNNY     80  54  40 W13G25    29.94S
6HR MIN TEMP:  79; 6HR MAX TEMP:  83;

SOUTH ST PAUL  MOSUNNY   81  51  35 W9G21     29.93F
LAKE ELMO      FAIR      79  55  44 W18G29    29.94S
$$
MNZ001>005-007-008-013>017-022>024-027-028-300100-
   Northwest Minnesota

CITY           SKY/WX    TMP DP  RH WIND       PRES   REMARKS
BEMIDJI        MOSUNNY   76  53  45 W20G29    29.85S
HALLOCK        MOSUNNY   77  52  41 NW13      29.81R
ROSEAU         MOSUNNY   75  54  46 W17G24    29.80R
WARROAD        CLOUDY    72  57  60 NW9       29.79R
THIEF RVR FALL MOSUNNY   77  54  44 W15G23    29.85R
CROOKSTON      MOSUNNY   79  55  44 NW18G31   29.87R
FOSSTON        MOSUNNY   75  52  43 W16G25    29.88R
DETROIT LAKES  MOSUNNY   77  54  44 W15G21    29.94R
MOORHEAD       MOSUNNY   77  55  47 W13G23    29.92S
PARK RAPIDS    PTSUNNY   77  54  44 W25G35    29.89S
MAHNOMEN       FAIR      76  55  47 W17G25    29.89S
$$
MNZ006-009>011-018-025>026-300100-
   North Central Minnesota

CITY           SKY/WX    TMP DP  RH WIND       PRES   REMARKS
BAUDETTE       CLOUDY    72  52  49 W21G33    29.77R
FLAG ISLAND    CLOUDY    66  57  72 W17       29.74F
INTL FALLS     CLOUDY    71  55  56 W14G29    29.74R
6HR MIN TEMP:  63; 6HR MAX TEMP:  74; 6HR PCP: TRACE;

WASKISH        MOSUNNY   73  55  53 W22G29    29.80R
BIG FORK       SUNNY     75  52  43 W12G23    29.80S
LONGVILLE      PTSUNNY   75  52  43 W12G29    29.86S
GRAND RAPIDS   MOSUNNY   73  52  46 W14G21    29.84S
CRANE LAKE     PTSUNNY   72  55  56 W9        29.74S
ORR            SUNNY     73  48  40 W10G29    29.74R
COOK           SUNNY     73  52  46 W23G29    29.77S
WALKER         MOCLDY    75  53  45 W15G29    29.86R
$$
MNZ012-019>021-037-300100-
   Northeast Minnesota

CITY           SKY/WX    TMP DP  RH WIND       PRES   REMARKS
DULUTH         MOSUNNY   75  53  46 W18G31    29.81S
6HR MIN TEMP:  70; 6HR MAX TEMP:  78;

ELY            MOSUNNY   72  54  53 W16G23    29.75R
HIBBING        MOSUNNY   75  53  46 W16G24    29.80S
EVELETH        SUNNY     73  52  46 W15G26    29.80S
DULUTH HARBOR  SUNNY     79  57  47 W17G33    29.79R
TWO HARBORS    MOSUNNY   77  59  53 W8        29.77R
SILVER BAY     MOSUNNY   77  52  41 SW12G23   29.74S
GRAND MARAIS     N/A     66  53  63 W8G20     29.70R
G MARAIS ARPRT   N/A     66  52  59 W10G22    29.75R
$$
MNZ029>031-032-039>041-046>048-054>057-064-300100-
   West Central Minnesota

CITY           SKY/WX    TMP DP  RH WIND       PRES   REMARKS
FERGUS FALLS   SUNNY     75  55  50 W13G21    29.94R
WHEATON        SUNNY     75  54  46 W13G22    29.99S
MORRIS         SUNNY     79  57  47 NW13G18   29.97S
ALEXANDRIA     SUNNY     78  53  41 NW18G28   29.97S
ELBOW LAKE     FAIR      76  56  50 W9G20     29.96S
WADENA         MOSUNNY   75  52  43 W13G24    29.92S
GLENWOOD       SUNNY     79  52  38 W21G29    29.97S
APPLETON       SUNNY     81  52  36 W13       29.98S
BENSON         MOSUNNY   79  54  41 NW10      29.98S
ORTONVILLE     SUNNY     81  48  32 W12G17    29.99S
MADISON        SUNNY     81  48  32 NW13G18   30.01S
WILLMAR        FAIR      81  55  41 W13G18    30.00S
$$
MNZ033>034-036-042>043-049>051-058-059-300100-
   Central Minnesota

CITY           SKY/WX    TMP DP  RH WIND       PRES   REMARKS
ST CLOUD       MOSUNNY   80  54  40 W15G28    29.92S
6HR MIN TEMP:  78; 6HR MAX TEMP:  82;

SAUK CENTRE    FAIR      77  56  47 W14G20    29.96R
PAYNESVILLE    SUNNY     76  52  43 SW12G23   29.97S
AITKIN         MOSUNNY   75  52  43 W7        29.87R
PINE RIVER     PTSUNNY   73  55  53 W9G18     29.92S
BRAINERD       MOSUNNY   76  49  38 W20G32    29.90R
STAPLES        MOSUNNY   73  50  43 W13G23    29.92R
LONG PRAIRIE   FAIR      77  52  41 W14G22    29.95S
LITTLE FALLS   SUNNY     79  48  34 W14G26    29.92S
LITCHFIELD     SUNNY     81  55  41 W10G18    29.98R
BUFFALO        SUNNY     79  56  43 W10G17    29.95F
MAPLE LAKE     SUNNY     79  59  50 W12G17    29.95S
$$
MNZ037-044-045-052-053-300100-
   East Central Minnesota

CITY           SKY/WX    TMP DP  RH WIND       PRES   REMARKS
PRINCETON      SUNNY     81  55  41 W10G18    29.92S
MORA           SUNNY     75  52  43 W10G18    29.91S
CAMBRIDGE      SUNNY     81  59  47 W14G22    29.89S
RUSH CITY      SUNNY     77  54  44 W12G22    29.90S
MOOSE LAKE     MOSUNNY   77  50  38 W17G25    29.84S
HINCKLEY       FAIR      77  55  47 W13       29.88S
CLOQUET        PTSUNNY   75  48  38 W21G26    29.83S
MCGREGOR       MOSUNNY   77  50  38 W15G21    29.87R
$$
MNZ071>073-080-081-089-090-097-098-300100-
   Southwest Minnesota

CITY           SKY/WX    TMP DP  RH WIND       PRES   REMARKS
MONTEVIDEO     SUNNY     81  52  36 NW9G16    30.01F
GRANITE FALLS  SUNNY     79  57  47 W8        30.02S
CANBY          SUNNY     81  49  33 W15       30.03F
MARSHALL       SUNNY     81  52  36 NW16G23   30.04S
REDWOOD FALLS  SUNNY     81  55  40 NW13      30.00S
OLIVIA         SUNNY     77  52  41 W13G18    29.99S
PIPESTONE      SUNNY     79  54  41 NW7       30.08S
WINDOM         SUNNY     81  55  41 W10       30.05S
WORTHINGTON    SUNNY     79  57  47 W7        30.08S
JACKSON        SUNNY     81  54  39 W10G17    30.07S
TRACY          SUNNY     79  55  44 W8        30.04F
SLAYTON        SUNNY     79  55  43 CALM      30.08R
$$
MNZ065>067-074>077-082>085-091>093-300100-
   South Central Minnesota

CITY           SKY/WX    TMP DP  RH WIND       PRES   REMARKS
MANKATO        SUNNY     81  54  39 W15       30.00S
NEW ULM        SUNNY     79  54  41 W13       30.00S
ST JAMES       SUNNY     82  55  39 W13G23    30.03S
FAIRMONT       SUNNY     81  52  36 W10G20    30.04S
GLENCOE        SUNNY     80  56  44 W8G18     29.97S
FARIBAULT      SUNNY     79  57  47 W12       29.99S
OWATONNA       SUNNY     79  55  44 W12       30.00S
WASECA         SUNNY     77  54  44 W12G20    30.02S
ALBERT LEA     SUNNY     79  55  44 W8        30.02F
$$
MNZ078>079-086>088-094>096-300100-
   Southeast Minnesota

CITY           SKY/WX    TMP DP  RH WIND       PRES   REMARKS
ROCHESTER      SUNNY     76  57  51 W16       30.01S
6HR MIN TEMP:  76; 6HR MAX TEMP:  78;

RED WING       SUNNY     82  50  32 W15G21    29.93S
STANTON        SUNNY     79  53  40 W12G21    29.96S
DODGE CENTER   SUNNY     77  54  44 W16       30.01S
WINONA         SUNNY     81  52  36 NW16      29.96S
AUSTIN         SUNNY     79  54  41 W14G22    30.02S
PRESTON        SUNNY     76  55  48 W13       30.02S
$$
ABBREVIATIONS USED IN REMARKS
   TC - TEMPERATURES IN CELSIUS
  WCI - WIND CHILL INDEX
   HX - HEAT INDEX
  VSB - VISIBILITY
$$


USA.gov is the U.S. government's official web portal to all federal, state and local government web resources and services.